Temp
-8 -7 -7 -7 -7 -6 -6 -6 -7 -7 -7 -7 -7 -7 -8 -8 -7 -6 -7 -7 -7 -7 -6 -6 -5 -5 -4 -4 -5 -4 -4 -4 -5 -5 -5 -5 -5 -5 -6 -6 -5 -5 -5 -5 -5 -4 -4 -5 -5
-8 -8 -8 -7 -7 -6 -6 -7 -7 -8 -7 -7 -7 -7 -8 -8 -8 -8 -7 -7 -7 -8 -7 -6 -6 -5 -5 -5 -5 -5 -4 -4 -5 -5 -5 -5 -5 -6 -6 -6 -6 -5 -5 -5 -5 -5 -5 -5 -5
-7 -8 -8 -7 -6 -6 -6 -7 -7 -8 -8 -7 -7 -7 -7 -8 -8 -7 -8 -7 -7 -7 -7 -7 -7 -6 -6 -6 -5 -5 -5 -5 -5 -5 -5 -5 -5 -6 -6 -6 -6 -6 -5 -5 -5 -5 -5 -5 -5
-7 -8 -7 -7 -7 -7 -7 -7 -7 -8 -9 -8 -7 -7 -7 -8 -8 -8 -7 -8 -9 -8 -7 -7 -7 -7 -7 -6 -6 -5 -5 -5 -5 -5 -5 -5 -5 -6 -6 -6 -6 -6 -6 -6 -6 -6 -6 -6 -6
-8 -8 -8 -7 -7 -7 -7 -7 -7 -8 -8 -8 -8 -7 -7 -7 -8 -8 -8 -8 -8 -8 -8 -7 -7 -7 -7 -7 -6 -6 -6 -6 -6 -6 -6 -5 -5 -6 -6 -6 -6 -6 -6 -6 -6 -6 -6 -6 -6
-8 -8 -8 -8 -8 -8 -8 -8 -7 -8 -9 -9 -8 -7 -7 -7 -7 -8 -8 -8 -8 -8 -9 -8 -8 -8 -7 -7 -7 -6 -6 -6 -6 -6 -6 -6 -6 -6 -6 -6 -6 -6 -6 -6 -6 -6 -6 -6 -6
-8 -8 -8 -8 -8 -8 -8 -8 -7 -8 -8 -9 -9 -8 -8 -7 -7 -7 -8 -8 -8 -8 -8 -8 -9 -8 -8 -7 -7 -7 -7 -7 -7 -7 -7 -6 -6 -6 -6 -6 -7 -7 -7 -7 -7 -7 -7 -7 -7
-8 -8 -7 -8 -8 -8 -8 -7 -7 -7 -8 -8 -9 -8 -8 -8 -7 -7 -7 -8 -8 -8 -8 -8 -8 -9 -8 -8 -7 -7 -7 -7 -7 -7 -7 -7 -7 -7 -7 -7 -7 -7 -7 -7 -7 -7 -7 -7 -8
-8 -7 -8 -9 -8 -7 -7 -7 -7 -7 -7 -8 -7 -8 -8 -9 -8 -8 -7 -7 -8 -8 -8 -8 -8 -9 -9 -9 -8 -8 -7 -7 -7 -7 -7 -8 -8 -8 -8 -8 -8 -8 -8 -8 -8 -8 -8 -8 -8
-8 -8 -9 -8 -8 -7 -7 -6 -7 -6 -6 -7 -8 -7 -6 -9 -9 -9 -8 -8 -8 -9 -8 -8 -8 -9 -9 -9 -9 -9 -8 -8 -7 -7 -7 -8 -8 -8 -8 -8 -8 -8 -8 -8 -8 -8 -8 -9 -9
-8 -9 -8 -8 -8 -7 -7 -6 -6 -6 -6 -6 -7 -9 -8 -8 -9 -10 -9 -9 -9 -9 -9 -9 -8 -9 -9 -9 -9 -9 -9 -9 -8 -8 -7 -8 -8 -8 -8 -8 -9 -9 -9 -8 -8 -9 -9 -9 -9
-9 -9 -9 -9 -8 -8 -7 -6 -6 -6 -5 -6 -7 -8 -10 -8 -10 -10 -10 -10 -9 -9 -10 -10 -9 -8 -9 -9 -9 -9 -9 -9 -9 -9 -8 -8 -8 -8 -9 -9 -9 -9 -9 -9 -9 -9 -9 -9 -9
-10 -9 -10 -9 -8 -8 -7 -7 -6 -5 -5 -7 -7 -8 -12 -9 -10 -12 -11 -10 -10 -10 -9 -10 -10 -10 -8 -8 -8 -8 -9 -9 -9 -8 -9 -10 -9 -9 -9 -9 -9 -9 -9 -9 -9 -9 -9 -9 -10
-10 -10 -9 -9 -9 -8 -7 -7 -6 -7 -8 -8 -9 -9 -13 -11 -11 -11 -12 -11 -10 -11 -10 -10 -10 -9 -9 -9 -9 -8 -9 -9 -9 -9 -9 -9 -9 -10 -9 -10 -9 -9 -9 -9 -9 -9 -9 -9 -9
-10 -10 -10 -10 -10 -9 -8 -9 -8 -9 -10 -10 -10 -13 -14 -13 -11 -12 -12 -12 -11 -10 -10 -10 -10 -10 -10 -10 -10 -9 -9 -9 -9 -10 -9 -9 -9 -8 -10 -10 -10 -10 -9 -9 -9 -9 -9 -9 -9
-10 -10 -11 -10 -10 -9 -8 -11 -11 -12 -12 -12 -13 -15 -15 -14 -13 -13 -12 -11 -11 -12 -11 -11 -10 -10 -10 -10 -11 -11 -10 -10 -9 -9 -10 -9 -10 -9 -9 -9 -10 -10 -10 -9 -9 -9 -9 -9 -10
-11 -11 -11 -11 -11 -10 -11 -12 -13 -13 -13 -14 -15 -15 -15 -15 -13 -13 -12 -12 -12 -12 -12 -12 -11 -11 -11 -11 -12 -12 -11 -11 -12 -10 -10 -11 -10 -9 -9 -9 -10 -10 -10 -10 -9 -9 -9 -10 -10
-12 -12 -11 -11 -12 -11 -12 -12 -13 -14 -14 -15 -15 -15 -15 -15 -15 -14 -14 -13 -13 -12 -13 -14 -12 -12 -12 -12 -12 -13 -13 -12 -12 -12 -12 -12 -11 -11 -9 -9 -9 -9 -9 -9 -10 -10 -10 -10 -10
-12 -12 -12 -12 -13 -12 -13 -13 -13 -13 -14 -15 -15 -15 -15 -15 -14 -15 -14 -13 -14 -14 -14 -14 -12 -12 -11 -11 -12 -12 -12 -13 -13 -13 -12 -12 -11 -11 -11 -9 -8 -9 -9 -10 -10 -10 -10 -10 -10
-13 -12 -13 -13 -13 -13 -13 -13 -13 -13 -13 -14 -15 -15 -15 -14 -14 -14 -14 -14 -13 -13 -13 -12 -12 -12 -12 -12 -12 -12 -12 -12 -12 -12 -12 -12 -12 -12 -12 -10 -10 -11 -9 -8 -10 -10 -10 -10 -10
-13 -13 -13 -13 -14 -13 -13 -13 -14 -14 -14 -15 -15 -15 -15 -15 -15 -15 -15 -15 -15 -14 -14 -13 -13 -12 -12 -12 -12 -12 -12 -12 -12 -12 -12 -12 -11 -11 -11 -11 -11 -10 -10 -9 -9 -9 -10 -10 -10
-14 -14 -14 -14 -14 -14 -14 -14 -14 -14 -14 -15 -14 -14 -15 -15 -15 -14 -15 -15 -15 -15 -14 -14 -13 -12 -12 -12 -12 -12 -12 -12 -12 -12 -12 -11 -11 -11 -11 -10 -10 -10 -10 -10 -9 -10 -10 -10 -9
-14 -14 -14 -14 -14 -14 -15 -15 -15 -15 -15 -15 -15 -15 -15 -15 -15 -15 -14 -14 -14 -14 -13 -13 -12 -12 -12 -11 -11 -11 -11 -12 -11 -12 -12 -11 -11 -11 -11 -11 -10 -9 -10 -9 -9 -9 -10 -10 -10
-15 -15 -15 -15 -15 -14 -15 -15 -14 -15 -15 -15 -15 -14 -14 -14 -15 -15 -15 -14 -14 -14 -14 -14 -14 -14 -14 -13 -12 -12 -12 -11 -11 -12 -12 -11 -11 -10 -10 -10 -10 -10 -10 -10 -10 -10 -9 -9 -10
-17 -16 -16 -16 -15 -15 -15 -15 -15 -14 -15 -15 -15 -15 -15 -15 -15 -15 -15 -15 -15 -15 -14 -14 -13 -14 -13 -13 -13 -14 -14 -14 -13 -13 -12 -11 -11 -11 -11 -11 -10 -10 -10 -10 -10 -10 -10 -10 -9
-18 -18 -17 -17 -16 -16 -16 -15 -15 -15 -15 -15 -14 -14 -15 -14 -14 -14 -14 -15 -15 -15 -14 -14 -13 -13 -13 -13 -13 -13 -13 -13 -13 -12 -11 -11 -10 -10 -11 -11 -11 -11 -11 -11 -10 -10 -10 -10 -11
-17 -17 -17 -17 -17 -16 -16 -16 -16 -15 -15 -15 -15 -15 -15 -15 -15 -15 -15 -15 -15 -15 -14 -14 -14 -14 -14 -14 -13 -13 -13 -12 -11 -11 -11 -11 -11 -11 -11 -11 -11 -11 -11 -10 -10 -10 -10 -10 -11
-17 -17 -17 -17 -17 -17 -16 -16 -16 -16 -15 -16 -15 -15 -15 -16 -15 -15 -15 -15 -15 -15 -14 -14 -14 -14 -14 -13 -12 -11 -11 -11 -11 -11 -11 -11 -11 -11 -11 -11 -11 -11 -11 -11 -11 -11 -10 -10 -10
-17 -17 -16 -17 -17 -16 -16 -16 -16 -16 -16 -16 -16 -16 -15 -15 -15 -15 -15 -15 -15 -15 -14 -14 -14 -13 -13 -11 -11 -11 -11 -11 -11 -11 -12 -12 -12 -12 -11 -11 -11 -11 -11 -11 -11 -11 -11 -11 -10
-16 -16 -17 -17 -17 -16 -16 -15 -16 -16 -16 -15 -16 -16 -15 -16 -15 -15 -15 -14 -14 -14 -14 -14 -13 -13 -12 -12 -12 -12 -12 -11 -12 -11 -11 -11 -11 -11 -10 -10 -10 -11 -11 -11 -11 -10 -10 -11 -11
Height
5859 5862 5865 5868 5873 5875 5882 5886 5887 5888 5886 5883 5882 5885 5888 5889 5893 5899 5899 5899 5899 5901 5902 5903 5905 5906 5908 5908 5909 5911 5912 5912 5912 5913 5914 5914 5916 5917 5917 5917 5917 5917 5917 5917 5918 5917 5917 5916 5915
5854 5857 5858 5860 5863 5871 5880 5882 5882 5883 5879 5879 5878 5881 5883 5887 5887 5891 5893 5895 5897 5898 5899 5901 5902 5904 5905 5906 5907 5909 5911 5911 5911 5912 5912 5913 5914 5915 5915 5915 5916 5916 5917 5917 5917 5917 5917 5917 5916
5848 5850 5853 5852 5857 5867 5877 5877 5878 5878 5874 5874 5877 5878 5881 5883 5882 5885 5888 5891 5893 5895 5896 5897 5899 5901 5903 5904 5906 5907 5908 5910 5910 5910 5910 5911 5912 5913 5914 5914 5915 5916 5916 5917 5917 5917 5917 5916 5916
5843 5843 5845 5846 5855 5861 5868 5871 5871 5870 5870 5869 5871 5874 5876 5880 5880 5880 5882 5885 5888 5891 5893 5894 5895 5897 5900 5902 5903 5905 5906 5907 5908 5909 5909 5909 5910 5911 5912 5913 5914 5915 5915 5916 5916 5916 5916 5916 5915
5836 5838 5838 5843 5851 5855 5859 5862 5861 5866 5863 5863 5864 5868 5871 5874 5875 5875 5876 5878 5881 5884 5888 5890 5893 5894 5897 5899 5900 5901 5903 5905 5905 5907 5908 5908 5909 5910 5911 5911 5912 5913 5914 5914 5915 5915 5915 5916 5915
5830 5832 5833 5839 5844 5847 5850 5854 5852 5857 5859 5857 5854 5861 5864 5867 5869 5869 5871 5873 5876 5879 5882 5886 5888 5891 5893 5895 5897 5898 5899 5901 5902 5903 5905 5906 5906 5907 5908 5909 5910 5911 5912 5912 5913 5913 5914 5913 5913
5825 5826 5827 5832 5838 5840 5843 5844 5845 5848 5852 5852 5846 5855 5859 5859 5863 5865 5866 5868 5871 5874 5877 5881 5884 5886 5887 5890 5893 5895 5896 5898 5899 5900 5902 5903 5904 5905 5906 5906 5907 5908 5909 5910 5911 5911 5911 5911 5911
5818 5819 5821 5825 5831 5832 5833 5835 5839 5842 5846 5845 5840 5842 5850 5853 5856 5860 5861 5861 5863 5867 5871 5874 5877 5881 5883 5884 5887 5890 5893 5894 5896 5898 5899 5900 5902 5903 5904 5904 5904 5904 5905 5906 5907 5907 5908 5908 5908
5810 5813 5815 5816 5818 5822 5826 5830 5833 5837 5839 5836 5836 5832 5840 5845 5847 5850 5854 5856 5858 5861 5864 5867 5871 5874 5877 5880 5882 5884 5888 5890 5892 5894 5895 5897 5898 5899 5899 5901 5902 5902 5902 5903 5904 5904 5905 5906 5906
5804 5806 5808 5809 5812 5813 5818 5822 5827 5830 5829 5830 5827 5828 5826 5833 5838 5842 5844 5847 5849 5852 5855 5858 5863 5866 5869 5872 5875 5878 5881 5884 5886 5889 5890 5891 5893 5894 5895 5896 5897 5899 5900 5900 5901 5901 5902 5902 5902
5798 5801 5801 5803 5803 5805 5808 5812 5816 5820 5821 5818 5820 5818 5819 5818 5824 5831 5835 5837 5839 5841 5845 5849 5853 5857 5860 5864 5867 5871 5874 5876 5879 5883 5885 5887 5889 5891 5892 5892 5893 5893 5895 5895 5895 5895 5896 5896 5897
5792 5793 5794 5793 5794 5795 5798 5802 5805 5808 5810 5808 5806 5808 5805 5811 5812 5819 5824 5828 5831 5832 5836 5840 5845 5849 5854 5856 5857 5860 5864 5866 5870 5874 5877 5881 5883 5885 5887 5888 5887 5887 5889 5889 5889 5889 5890 5891 5892
5786 5786 5788 5787 5787 5787 5789 5791 5794 5796 5796 5795 5795 5792 5797 5798 5799 5805 5810 5816 5820 5825 5827 5830 5835 5839 5842 5848 5849 5851 5853 5858 5861 5863 5867 5871 5874 5878 5880 5882 5883 5883 5882 5883 5882 5881 5881 5883 5884
5777 5780 5780 5778 5778 5780 5781 5781 5782 5783 5783 5784 5783 5780 5783 5790 5793 5795 5796 5804 5810 5813 5818 5820 5825 5829 5834 5836 5841 5843 5839 5846 5850 5853 5855 5857 5861 5865 5870 5872 5876 5877 5877 5876 5874 5874 5873 5874 5876
5769 5773 5773 5771 5771 5772 5772 5774 5773 5772 5773 5773 5771 5769 5776 5782 5785 5784 5789 5792 5801 5808 5811 5817 5821 5822 5822 5823 5827 5830 5831 5836 5838 5841 5845 5847 5849 5850 5855 5861 5863 5867 5869 5867 5867 5866 5866 5866 5868
5764 5767 5765 5763 5766 5764 5763 5767 5762 5764 5765 5765 5767 5771 5771 5777 5779 5776 5781 5781 5787 5799 5806 5808 5811 5814 5816 5814 5817 5821 5824 5826 5827 5829 5832 5834 5838 5842 5843 5847 5852 5855 5857 5857 5858 5858 5858 5859 5861
5758 5758 5756 5756 5757 5755 5758 5761 5759 5757 5760 5762 5765 5768 5769 5772 5773 5770 5776 5781 5785 5788 5791 5797 5802 5807 5807 5808 5811 5815 5816 5818 5819 5819 5819 5823 5825 5830 5834 5837 5838 5841 5842 5843 5845 5846 5845 5846 5848
5747 5747 5748 5749 5750 5749 5752 5754 5756 5754 5754 5759 5761 5764 5766 5767 5768 5767 5767 5773 5778 5779 5785 5786 5792 5796 5799 5802 5803 5805 5808 5811 5812 5814 5813 5815 5817 5817 5820 5821 5825 5828 5828 5827 5828 5829 5830 5832 5834
5739 5741 5742 5745 5745 5745 5748 5749 5751 5752 5751 5754 5756 5759 5762 5762 5764 5765 5764 5772 5772 5774 5778 5782 5787 5789 5791 5794 5797 5801 5804 5805 5805 5805 5807 5808 5810 5810 5810 5812 5814 5813 5812 5806 5808 5810 5815 5820 5822
5732 5734 5738 5739 5740 5738 5742 5745 5746 5747 5747 5750 5751 5755 5758 5760 5762 5762 5764 5764 5767 5768 5771 5775 5777 5780 5782 5785 5788 5791 5796 5798 5799 5799 5799 5801 5803 5802 5801 5801 5801 5797 5792 5796 5796 5796 5802 5805 5808
5727 5729 5734 5735 5733 5733 5737 5742 5743 5744 5744 5746 5747 5751 5753 5754 5757 5758 5758 5760 5760 5761 5763 5765 5768 5770 5773 5775 5777 5780 5783 5785 5786 5785 5786 5787 5789 5790 5790 5789 5788 5785 5781 5787 5787 5789 5790 5794 5796
5720 5725 5727 5728 5729 5730 5731 5734 5738 5740 5741 5742 5744 5747 5749 5750 5751 5752 5752 5753 5753 5753 5756 5759 5761 5763 5766 5769 5769 5770 5773 5774 5776 5777 5778 5779 5780 5780 5779 5778 5776 5773 5772 5775 5778 5773 5779 5781 5781
5717 5719 5720 5723 5724 5725 5726 5728 5731 5734 5737 5737 5739 5741 5742 5742 5742 5743 5744 5746 5747 5748 5750 5751 5752 5754 5757 5758 5761 5763 5764 5766 5767 5767 5766 5765 5764 5763 5763 5763 5762 5761 5760 5764 5764 5766 5766 5770 5771
5710 5713 5715 5717 5718 5719 5723 5722 5722 5726 5730 5730 5731 5731 5734 5735 5737 5739 5739 5739 5740 5742 5743 5743 5744 5745 5746 5747 5748 5750 5750 5752 5752 5751 5751 5751 5752 5752 5751 5751 5753 5754 5752 5750 5751 5752 5757 5759 5759
5703 5707 5710 5711 5711 5714 5716 5715 5717 5718 5720 5721 5721 5724 5725 5727 5729 5731 5731 5732 5734 5734 5735 5736 5737 5737 5738 5739 5740 5739 5738 5736 5735 5734 5734 5736 5737 5737 5736 5734 5735 5734 5735 5735 5736 5738 5741 5743 5745
5698 5701 5704 5704 5706 5708 5708 5707 5711 5711 5712 5713 5715 5718 5719 5720 5721 5722 5724 5724 5726 5727 5728 5729 5730 5730 5730 5729 5729 5727 5727 5726 5725 5724 5724 5725 5724 5723 5722 5720 5719 5718 5718 5718 5718 5721 5723 5725 5729
5693 5695 5698 5697 5698 5700 5702 5703 5704 5705 5706 5708 5710 5712 5713 5714 5715 5716 5717 5718 5719 5719 5720 5719 5719 5718 5717 5716 5714 5713 5710 5710 5711 5711 5711 5711 5711 5710 5711 5710 5708 5706 5704 5702 5703 5702 5705 5706 5709
5685 5688 5689 5690 5691 5692 5694 5695 5697 5697 5700 5702 5703 5705 5707 5707 5709 5710 5710 5710 5710 5710 5711 5710 5709 5708 5706 5704 5701 5701 5701 5700 5700 5699 5697 5695 5693 5691 5690 5689 5688 5687 5685 5684 5685 5686 5686 5689 5691
5679 5679 5682 5684 5683 5684 5686 5689 5691 5691 5694 5694 5696 5698 5699 5701 5701 5700 5700 5700 5700 5700 5699 5697 5696 5694 5692 5691 5691 5691 5691 5689 5687 5683 5681 5678 5675 5672 5669 5667 5665 5664 5664 5664 5665 5667 5669 5671 5672
5673 5673 5675 5676 5678 5678 5678 5682 5684 5685 5687 5687 5688 5690 5692 5692 5691 5689 5689 5689 5688 5688 5685 5685 5684 5682 5681 5680 5680 5678 5675 5673 5670 5668 5664 5662 5659 5657 5654 5651 5648 5647 5645 5643 5641 5642 5644 5648 5651
Wind_Speed
36 35 34 33 35 35 28 22 22 24 30 38 41 36 29 29 26 25 18 13 11 14 12 9 10 11 11 9 7 6 2 1 1 4 5 5 4 4 5 7 8 9 11 11 11 10 11 10 11
41 38 38 38 39 32 24 24 25 27 34 38 44 41 38 33 32 30 25 22 16 16 16 12 10 12 12 11 10 9 8 5 3 3 4 5 5 5 6 7 8 8 9 9 9 10 11 10 11
39 41 42 44 42 33 24 25 27 30 36 39 44 45 43 40 38 35 24 26 23 21 20 20 16 14 14 13 14 11 11 10 8 7 6 7 6 6 7 8 8 9 10 9 9 10 10 11 12
35 38 40 42 36 31 28 29 30 35 38 42 43 49 48 43 42 38 36 26 20 26 27 24 25 24 23 20 18 17 14 13 11 10 9 9 9 8 8 8 8 8 9 9 10 9 10 10 11
34 35 38 36 29 26 25 30 38 38 42 47 47 48 50 47 47 46 41 37 34 30 29 30 29 29 27 23 22 20 17 15 13 11 11 10 11 10 8 8 7 8 8 8 9 9 10 10 11
36 37 38 35 32 31 30 31 37 38 43 45 53 50 52 50 50 50 47 42 38 37 31 28 32 32 30 25 24 23 21 19 16 14 13 13 13 11 9 9 9 9 9 9 9 10 10 10 10
34 35 36 33 29 30 30 34 39 38 42 46 53 49 54 56 52 53 51 46 41 41 38 37 35 36 35 33 29 27 24 22 18 17 15 13 13 12 11 11 11 11 11 12 12 12 10 11 11
33 34 34 31 29 32 35 37 37 39 39 48 55 54 52 55 57 55 57 55 49 46 44 44 42 40 40 38 34 34 31 26 24 22 20 17 16 16 15 14 14 14 14 14 14 14 12 12 13
32 33 31 31 36 36 36 37 39 39 42 49 53 59 55 57 57 58 59 60 58 52 49 47 46 45 43 43 40 37 36 33 32 26 24 23 22 21 20 19 18 18 17 16 17 17 14 16 17
34 34 34 37 37 39 38 38 39 40 44 51 57 59 61 59 60 60 62 63 63 57 55 51 48 46 49 47 42 41 41 43 40 37 32 29 27 26 25 23 21 21 19 19 19 19 19 20 20
36 33 35 36 38 39 40 39 39 40 44 50 59 63 66 67 62 62 63 66 63 58 52 56 54 50 50 52 50 44 42 43 42 41 39 36 34 32 30 28 27 24 24 23 23 22 23 24 23
33 34 34 36 39 41 42 40 41 42 42 49 59 68 68 69 68 64 63 66 69 64 52 46 51 56 50 49 51 50 48 47 44 42 44 42 39 37 35 35 34 31 29 27 26 27 29 28 27
30 34 33 37 40 42 42 42 43 44 45 46 57 70 64 72 72 63 56 61 59 61 65 51 41 40 50 50 42 43 53 51 50 48 44 43 43 41 40 39 39 36 37 34 34 34 33 34 33
35 33 33 36 39 40 41 40 40 33 32 44 65 75 67 70 64 68 52 58 59 53 59 59 47 41 40 44 50 53 45 51 52 55 51 48 48 48 46 43 43 44 44 42 43 42 40 40 40
34 30 31 35 36 35 37 27 23 23 24 48 70 72 51 64 61 53 50 50 56 59 60 55 52 50 45 43 37 37 43 52 51 56 53 53 57 53 53 55 48 49 52 49 49 48 47 45 44
31 28 32 38 32 34 30 12 18 16 21 49 66 49 46 48 51 42 54 51 43 47 51 51 53 57 53 41 31 27 35 38 43 51 56 51 61 54 58 59 60 54 55 55 55 53 52 49 49
27 29 35 35 30 27 20 9 13 20 20 40 40 33 39 33 59 48 46 53 41 42 45 46 51 47 44 40 29 25 25 28 29 31 37 31 38 46 63 68 60 62 60 61 62 62 58 56 54
32 32 34 33 26 25 18 11 9 16 28 28 42 36 32 31 30 35 46 51 47 35 28 18 25 26 31 29 31 32 31 29 33 34 28 28 30 31 42 44 52 66 67 68 70 69 65 65 58
34 33 33 30 27 24 18 14 14 17 20 30 37 29 30 31 32 33 35 51 21 28 24 21 32 41 39 43 48 45 40 39 38 37 39 37 32 33 34 36 47 57 77 72 73 75 73 71 65
34 32 29 31 27 28 22 16 17 18 16 28 36 31 26 29 33 34 31 30 27 28 31 33 34 39 38 41 39 39 44 48 43 38 39 43 45 45 48 42 42 52 67 50 67 71 73 74 74
31 31 26 29 32 32 25 21 20 23 20 29 35 34 27 26 26 24 27 31 32 31 32 35 36 37 39 38 38 38 40 42 43 42 42 45 46 47 48 51 58 63 56 56 72 73 75 72 77
31 27 28 32 32 32 31 27 25 27 27 30 30 30 30 21 23 26 23 25 29 31 33 34 35 36 38 41 40 41 44 45 46 46 46 49 50 53 51 54 58 64 60 54 56 47 50 60 62
28 29 31 32 31 30 34 34 30 32 30 30 30 30 27 27 25 25 27 28 31 33 35 34 35 36 38 41 43 45 45 45 47 48 49 53 55 56 58 60 62 66 68 63 61 59 55 54 60
31 29 31 31 31 32 29 35 38 34 30 32 30 33 32 32 29 29 29 32 31 32 32 33 35 37 38 41 43 44 46 51 52 52 55 56 59 62 63 65 66 69 71 70 70 69 65 61 59
31 29 30 32 34 31 29 30 29 33 35 37 38 34 33 32 34 33 31 31 30 31 33 35 35 35 37 39 39 41 44 49 53 56 56 56 57 59 61 64 65 67 69 70 70 71 73 72 67
32 33 33 34 35 32 32 34 27 27 30 29 30 32 36 36 34 33 33 32 34 33 34 33 32 31 36 39 42 46 51 56 58 58 57 56 56 56 59 60 60 60 63 66 71 75 73 70 72
29 32 32 35 35 35 35 33 33 32 28 30 28 30 29 32 31 29 31 33 34 37 38 36 36 39 42 45 46 49 50 53 52 50 52 54 56 58 60 61 63 65 67 66 63 62 62 65 69
29 33 38 40 39 40 33 29 31 33 33 30 32 32 33 34 32 34 37 36 35 36 37 39 43 45 47 49 47 45 48 48 50 54 55 57 57 57 58 59 59 61 62 64 67 67 66 64 65
29 32 32 32 36 40 35 35 33 32 31 30 31 30 32 33 35 36 39 40 40 42 44 45 45 48 50 47 47 45 47 51 53 53 54 53 53 56 58 60 63 64 64 65 65 65 64 66 67
26 28 27 30 34 35 35 33 31 31 29 30 31 33 32 34 32 36 39 42 44 44 45 43 47 50 49 47 47 49 49 47 47 49 51 54 57 59 60 61 63 64 66 67 71 73 72 71 70
Wind_Direction
241 239 238 234 232 229 221 215 206 221 217 213 223 230 238 246 235 234 231 230 245 256 250 263 254 254 261 269 277 261 214 165 244 237 223 225 237 271 296 311 321 331 332 335 340 341 341 344 341
243 243 242 242 239 232 222 222 218 220 226 218 221 223 230 234 245 239 231 234 236 251 251 261 260 250 256 260 259 267 254 235 242 259 238 231 241 268 295 303 313 324 335 342 342 340 338 339 338
241 245 243 243 245 246 231 229 225 227 232 230 221 225 228 230 235 243 236 235 237 244 244 245 249 251 268 279 274 264 259 251 243 248 254 249 244 260 280 296 312 326 332 332 335 334 337 341 340
238 243 247 247 248 244 240 231 227 230 232 239 228 228 228 229 237 236 237 239 228 239 243 243 246 255 263 269 271 265 260 253 246 247 248 250 251 255 270 289 304 318 323 326 327 331 340 339 337
237 240 245 246 247 242 235 229 230 225 234 240 239 230 233 229 232 238 235 226 229 228 237 243 245 253 261 266 269 258 254 253 247 250 255 256 256 258 262 272 288 300 303 309 312 325 334 332 335
241 243 245 247 244 242 236 232 232 228 234 238 241 236 232 231 230 235 238 235 232 235 233 241 249 252 255 260 263 258 252 251 249 245 245 249 247 246 249 262 276 282 283 286 295 307 317 323 331
245 247 249 249 249 247 244 235 229 232 227 235 247 242 237 237 233 234 237 238 233 236 235 235 243 251 254 256 254 261 260 255 252 247 242 246 241 240 238 247 258 259 271 280 283 289 298 306 312
244 247 252 257 257 249 247 242 236 235 235 234 243 246 240 243 242 238 239 242 242 237 237 233 235 244 251 251 250 257 260 257 251 249 246 242 244 245 245 250 254 254 257 265 271 273 277 286 293
253 254 260 262 257 255 252 249 250 244 243 240 243 250 245 243 243 243 244 246 249 245 237 237 237 239 245 251 251 256 259 262 258 249 247 244 242 244 248 251 254 258 260 263 271 276 277 286 294
252 254 257 257 258 256 254 251 249 251 249 245 243 246 251 244 244 246 246 244 246 246 243 241 238 239 242 247 251 254 258 262 261 256 248 243 243 245 246 248 250 256 260 265 267 271 271 277 283
248 255 258 260 262 262 261 259 256 253 252 247 242 240 244 248 246 245 244 245 243 244 244 241 240 239 239 243 249 251 251 254 256 256 254 251 248 247 248 247 248 247 253 257 258 259 260 265 272
253 257 260 265 265 264 264 263 263 262 259 245 242 237 237 243 245 245 241 241 244 240 238 239 244 245 245 244 245 247 248 246 246 254 256 258 259 251 249 249 245 244 247 250 253 253 257 261 265
256 255 260 261 263 264 265 268 266 264 259 243 239 238 228 239 238 236 236 234 234 241 241 235 237 239 246 245 246 248 242 244 246 244 245 258 265 256 252 250 251 245 247 245 247 247 249 254 255
253 255 260 264 266 268 268 267 268 276 273 243 229 231 227 226 237 239 225 229 232 232 237 234 230 231 231 245 243 244 243 235 244 246 242 239 243 247 250 246 252 256 252 250 249 247 247 250 253
255 259 260 261 266 269 265 274 288 275 262 232 224 228 229 220 225 224 225 227 234 243 240 243 238 234 238 242 239 240 255 242 241 240 243 245 247 240 242 249 243 247 254 252 251 250 251 253 255
254 256 254 255 257 262 275 329 297 280 267 233 225 237 242 232 238 250 222 221 231 230 234 238 240 239 240 243 256 255 257 264 253 246 237 245 249 253 240 251 248 242 247 249 251 251 252 256 256
253 250 246 254 258 267 288 321 294 276 249 239 235 242 242 262 235 254 252 224 221 221 215 223 231 235 243 243 250 263 261 251 260 255 244 245 247 250 246 248 243 238 242 244 247 251 248 249 249
243 241 245 248 255 265 287 305 270 254 259 240 243 243 257 255 260 252 260 255 246 233 228 217 223 232 241 240 239 246 247 257 243 250 249 242 244 245 242 245 244 244 246 243 244 244 246 245 244
244 245 249 252 251 260 268 278 283 244 264 244 248 253 250 250 260 259 254 259 263 262 267 255 258 243 240 242 245 242 247 245 251 251 247 250 253 255 250 240 247 249 243 236 240 240 248 246 245
245 248 249 252 248 257 254 264 267 266 248 242 251 251 264 247 244 253 261 259 260 248 245 249 247 256 254 255 257 254 253 255 261 259 254 256 256 257 258 258 249 251 250 243 232 243 248 245 248
246 248 247 251 245 257 258 261 253 268 224 232 251 257 261 254 251 252 251 253 253 250 250 251 250 248 253 255 253 250 246 245 247 247 249 251 251 252 253 249 255 256 267 250 244 250 252 252 250
245 253 247 250 247 251 257 259 246 252 250 241 252 251 251 236 243 246 259 260 253 257 258 254 256 255 249 250 252 252 251 252 253 253 252 252 253 255 254 256 260 260 258 257 256 261 254 260 249
246 248 249 248 251 252 251 258 256 251 257 255 253 257 243 244 248 256 255 256 255 253 255 255 257 257 255 253 253 254 256 255 255 255 254 253 253 254 257 256 255 260 265 264 260 256 254 253 247
247 244 248 253 254 256 260 259 260 261 256 259 256 250 252 254 261 264 265 264 256 252 249 248 246 250 253 254 256 256 254 254 254 256 256 256 257 257 259 259 260 260 264 268 271 270 267 263 258
248 251 251 251 257 263 269 270 266 262 260 257 255 259 263 268 277 275 265 263 264 261 257 254 251 249 249 250 253 256 258 261 262 263 264 265 265 267 268 268 268 267 266 265 264 265 265 265 262
242 246 250 255 256 259 266 266 271 263 263 268 263 259 264 270 274 273 267 265 264 265 269 265 258 259 261 262 264 263 258 259 259 263 267 267 265 264 264 265 267 268 269 270 268 266 265 264 265
248 247 253 255 256 257 260 264 271 262 260 263 266 266 270 270 270 273 269 269 270 273 273 272 275 277 278 279 274 272 267 264 263 263 266 266 266 262 260 260 261 263 263 264 266 265 264 265 263
249 248 250 249 253 261 263 261 266 261 260 263 263 264 263 278 276 275 269 269 267 267 270 275 277 278 276 274 271 265 262 263 270 272 273 274 275 275 273 270 267 263 263 263 263 266 268 266 267
254 257 256 257 256 256 258 260 263 268 262 257 260 260 271 278 280 274 271 270 272 274 274 274 273 271 270 269 269 267 271 275 278 279 277 277 279 281 281 280 280 278 276 273 270 267 262 260 260
259 261 258 257 261 258 260 257 258 266 253 256 255 269 279 293 283 273 270 268 269 271 271 275 274 275 278 278 278 279 280 278 277 281 282 281 278 277 275 274 274 273 273 275 275 274 270 265 257